TimeCST,TemperatureF,Dew PointF,Humidity,Sea Level PressureIn,VisibilityMPH,Wind Direction,Wind SpeedMPH,Gust SpeedMPH,PrecipitationIn,Events,Conditions,WindDirDegrees,DateUTC
12:15 AM,32.7,32.0,97,29.79,1.2,SSW,3.5,-,N/A,,Mist,210,2012-12-18 06:15:00
12:35 AM,33.1,32.4,97,29.79,1.5,SSW,4.6,-,N/A,,Mist,210,2012-12-18 06:35:00
12:55 AM,33.4,32.7,97,29.79,3.0,SSW,3.5,-,N/A,,Clear,200,2012-12-18 06:55:00
1:15 AM,33.4,32.7,97,29.78,3.0,South,3.5,-,N/A,,Clear,190,2012-12-18 07:15:00
1:35 AM,32.9,32.0,96,29.78,2.5,South,3.5,-,N/A,,Clear,170,2012-12-18 07:35:00
1:55 AM,32.9,32.0,96,29.78,2.5,South,5.8,-,N/A,,Scattered Clouds,170,2012-12-18 07:55:00
2:15 AM,33.8,33.1,97,29.79,4.0,South,5.8,-,N/A,,Mostly Cloudy,180,2012-12-18 08:15:00
2:35 AM,34.3,33.6,97,29.78,5.0,SSE,6.9,-,N/A,,Mostly Cloudy,160,2012-12-18 08:35:00
2:55 AM,34.2,32.9,95,29.79,5.0,South,5.8,-,N/A,,Scattered Clouds,180,2012-12-18 08:55:00
3:15 AM,35.2,33.3,92,29.79,5.0,South,5.8,-,N/A,,Mostly Cloudy,190,2012-12-18 09:15:00
3:35 AM,35.8,33.4,91,29.77,5.0,SSE,5.8,-,N/A,,Overcast,160,2012-12-18 09:35:00
3:55 AM,35.6,33.3,91,29.77,5.0,South,5.8,-,N/A,,Overcast,170,2012-12-18 09:55:00
4:15 AM,35.6,33.1,91,29.75,5.0,SSE,6.9,-,N/A,,Mostly Cloudy,160,2012-12-18 10:15:00
4:35 AM,35.8,33.8,92,29.76,5.0,South,5.8,-,N/A,,Clear,170,2012-12-18 10:35:00
4:55 AM,36.0,33.8,92,29.75,5.0,SSE,9.2,-,N/A,,Mostly Cloudy,160,2012-12-18 10:55:00
5:15 AM,36.0,33.8,92,29.76,5.0,South,8.1,-,N/A,,Scattered Clouds,180,2012-12-18 11:15:00
5:35 AM,36.1,34.2,93,29.76,5.0,SSE,8.1,-,N/A,,Clear,160,2012-12-18 11:35:00
5:55 AM,36.1,34.2,93,29.75,5.0,SSE,9.2,-,N/A,,Clear,150,2012-12-18 11:55:00
6:15 AM,36.1,34.2,93,29.74,5.0,SE,9.2,-,N/A,,Clear,140,2012-12-18 12:15:00
6:35 AM,36.5,34.7,93,29.74,5.0,SSE,10.4,-,N/A,,Mostly Cloudy,150,2012-12-18 12:35:00
6:55 AM,36.7,34.7,93,29.74,5.0,SSE,10.4,-,N/A,,Scattered Clouds,150,2012-12-18 12:55:00
7:15 AM,36.7,34.5,92,29.74,5.0,SSE,10.4,-,N/A,,Mostly Cloudy,150,2012-12-18 13:15:00
7:35 AM,36.5,34.3,92,29.74,3.0,SSE,9.2,-,N/A,,Scattered Clouds,160,2012-12-18 13:35:00
7:55 AM,36.9,34.7,92,29.74,3.0,SSE,11.5,18.4,N/A,,Clear,160,2012-12-18 13:55:00
8:15 AM,37.4,34.7,90,29.73,4.0,SSE,11.5,-,N/A,,Clear,150,2012-12-18 14:15:00
8:35 AM,37.6,34.7,89,29.72,4.0,SSE,13.8,21.9,N/A,,Clear,150,2012-12-18 14:35:00
8:55 AM,37.8,34.9,89,29.71,4.0,SSE,13.8,21.9,N/A,,Clear,150,2012-12-18 14:55:00
9:15 AM,39.2,35.1,85,29.71,5.0,SSE,13.8,18.4,N/A,,Clear,150,2012-12-18 15:15:00
9:35 AM,39.9,35.4,84,29.71,7.0,SSE,16.1,21.9,N/A,,Clear,150,2012-12-18 15:35:00
9:55 AM,40.8,35.8,82,29.70,7.0,SSE,16.1,21.9,N/A,,Clear,150,2012-12-18 15:55:00
10:15 AM,42.1,36.1,79,29.70,7.0,South,12.7,19.6,N/A,,Clear,170,2012-12-18 16:15:00
10:35 AM,43.2,36.7,78,29.68,7.0,SSE,16.1,24.2,N/A,,Clear,160,2012-12-18 16:35:00
10:55 AM,45.5,38.1,75,29.66,10.0,South,18.4,26.5,N/A,,Clear,170,2012-12-18 16:55:00
11:15 AM,47.3,39.6,74,29.66,10.0,South,18.4,26.5,N/A,,Clear,170,2012-12-18 17:15:00
11:35 AM,48.9,40.1,72,29.65,10.0,South,19.6,26.5,N/A,,Clear,180,2012-12-18 17:35:00
11:55 AM,49.1,39.6,70,29.64,10.0,South,18.4,26.5,N/A,,Clear,190,2012-12-18 17:55:00
12:15 PM,49.8,40.5,70,29.63,10.0,SSW,21.9,26.5,N/A,,Clear,200,2012-12-18 18:15:00
12:35 PM,50.9,39.4,65,29.63,10.0,SSW,18.4,25.3,N/A,,Clear,200,2012-12-18 18:35:00
12:55 PM,51.1,39.9,66,29.62,10.0,SSW,17.3,24.2,N/A,,Clear,210,2012-12-18 18:55:00
1:15 PM,52.5,39.7,62,29.62,10.0,SSW,18.4,28.8,N/A,,Clear,210,2012-12-18 19:15:00
1:35 PM,53.6,40.6,62,29.60,10.0,SSW,17.3,-,N/A,,Clear,210,2012-12-18 19:35:00
1:55 PM,54.9,41.9,62,29.60,10.0,SSW,12.7,-,N/A,,Clear,210,2012-12-18 19:55:00
2:15 PM,56.1,41.9,59,29.60,10.0,SW,19.6,23.0,N/A,,Clear,220,2012-12-18 20:15:00
2:35 PM,56.3,40.5,55,29.60,10.0,SW,18.4,25.3,N/A,,Clear,220,2012-12-18 20:35:00
2:55 PM,56.3,41.5,58,29.61,10.0,SW,18.4,24.2,N/A,,Clear,230,2012-12-18 20:55:00
3:15 PM,55.9,40.5,56,29.62,10.0,SW,16.1,23.0,N/A,,Clear,230,2012-12-18 21:15:00
3:35 PM,55.4,41.0,58,29.63,10.0,SW,13.8,23.0,N/A,,Clear,230,2012-12-18 21:35:00
3:55 PM,54.9,41.0,60,29.63,10.0,WSW,15.0,-,N/A,,Clear,240,2012-12-18 21:55:00
4:15 PM,54.5,40.1,58,29.64,10.0,WSW,16.1,20.7,N/A,,Clear,240,2012-12-18 22:15:00
4:35 PM,53.6,39.0,58,29.66,10.0,WSW,13.8,19.6,N/A,,Clear,250,2012-12-18 22:35:00
4:55 PM,53.1,38.3,57,29.68,10.0,WSW,13.8,24.2,N/A,,Clear,250,2012-12-18 22:55:00
5:15 PM,52.7,37.9,57,29.69,10.0,West,13.8,18.4,N/A,,Clear,260,2012-12-18 23:15:00
5:35 PM,51.6,37.4,58,29.71,10.0,West,17.3,-,N/A,,Clear,280,2012-12-18 23:35:00
5:55 PM,44.4,35.2,70,29.75,10.0,WNW,16.1,28.8,N/A,,Clear,290,2012-12-18 23:55:00
6:15 PM,42.3,33.6,71,29.77,10.0,WNW,17.3,26.5,N/A,,Clear,300,2012-12-19 00:15:00
6:35 PM,40.5,32.5,73,29.78,10.0,WNW,13.8,23.0,N/A,,Clear,300,2012-12-19 00:35:00
6:55 PM,39.4,32.2,75,29.80,10.0,WNW,13.8,19.6,N/A,,Clear,300,2012-12-19 00:55:00
7:15 PM,39.0,32.0,76,29.81,10.0,WNW,11.5,19.6,N/A,,Clear,290,2012-12-19 01:15:00
7:35 PM,38.7,32.0,77,29.82,10.0,WNW,12.7,-,N/A,,Clear,290,2012-12-19 01:35:00
7:55 PM,38.8,32.0,76,29.83,10.0,WNW,13.8,-,N/A,,Clear,290,2012-12-19 01:55:00
8:15 PM,38.5,32.0,78,29.84,10.0,WNW,12.7,19.6,N/A,,Clear,290,2012-12-19 02:15:00
8:35 PM,38.1,32.0,79,29.85,10.0,West,12.7,-,N/A,,Clear,280,2012-12-19 02:35:00
8:55 PM,37.4,32.0,81,29.85,10.0,West,9.2,-,N/A,,Clear,280,2012-12-19 02:55:00
9:15 PM,36.7,32.0,83,29.85,7.0,West,9.2,-,N/A,,Clear,280,2012-12-19 03:15:00
9:35 PM,36.1,32.0,85,29.85,7.0,West,6.9,-,N/A,,Clear,280,2012-12-19 03:35:00
9:55 PM,35.6,32.0,87,29.87,7.0,West,6.9,-,N/A,,Clear,270,2012-12-19 03:55:00
10:15 PM,36.0,32.0,86,29.87,7.0,WNW,6.9,-,N/A,,Clear,290,2012-12-19 04:15:00
10:35 PM,35.2,32.0,88,29.89,7.0,WSW,6.9,-,N/A,,Clear,250,2012-12-19 04:35:00
10:55 PM,36.5,32.0,84,29.90,7.0,West,5.8,-,N/A,,Scattered Clouds,260,2012-12-19 04:55:00
11:15 PM,35.4,32.0,87,29.90,7.0,West,5.8,-,N/A,,Scattered Clouds,280,2012-12-19 05:15:00
11:35 PM,34.7,32.0,90,29.90,7.0,NW,3.5,-,N/A,,Scattered Clouds,310,2012-12-19 05:35:00
11:55 PM,34.7,32.0,90,29.91,7.0,NW,4.6,-,N/A,,Scattered Clouds,310,2012-12-19 05:55:00